Location: La Pernelle
(49.6188°N, 1.2999°W)
Time: 13:25:42
(UTC+00:00)

Cosmos 2333 Rocket - Pass Details

Date: 12 June 2021
Orbit: 841 x 861 km, 70.8° (Epoch: 04 August)

Event Time Altitude Azimuth Distance (km) Brightness Sun altitude
Exits shadow 22:00:04 15° 133° (SE) 2,168 3.7 -12.0°
Maximum altitude 22:02:40 20° 100° (E) 1,893 3.7 -12.2°
Drops below altitude 10° 22:06:40 10° 56° (NE) 2,496 4.7 -12.6°
Sets 22:09:45 0° 40° (NE) 3,434 5.7 -12.8°
